Flag Weather past 2 weeks in Port of Spain, Trinidad and Tobago

Now
79 °F

Passing clouds.


Feels Like: 82 °F
Forecast: 77 / 88 °F
Wind: No wind

Location: Piarco International Airport - Trinidad

Current Time: Oct 31, 2014 at 1:38:57 AM

Latest Report: Oct 31, 2014 at 1:00 AM


Visibility: N/A

Pressure: 29.80 "Hg

Humidity: 84%

Dew point: 73 °F

Location of Port of SpainLocation

Historic Weather in Port of Spain — Graph

°F

Port of Spain temperature yesterday

Maximum temperature yesterday: 93 °F (at 1:00 PM)
Minimum temperature yesterday: 77 °F (at 3:00 AM)
Average temperature yesterday: 83 °F

Past Weeks' High & Low Weather Summary

 TemperatureHumidityPressure
High97 °F (Oct 16, 1:00 PM)100% (Oct 18, 5:00 AM)29.95 "Hg (Oct 18, 5:00 AM)
Low73 °F (Oct 16, 6:00 AM)47% (Oct 17, 1:00 PM)29.77 "Hg (Oct 25, 3:00 AM)
Average81 °F80%29.86 "Hg
* Reported Midnight between Oct 15 and Oct 16 — Midnight between Oct 30 and Oct 31, Port of Spain, Weather by CustomWeather, © 2014

Note: Actual official high and low records may vary slightly from our data, if they occured in-between our weather recording intervals... More about our weather records

Advertising

Port of Spain weather history for previous 24 hours

 ConditionsComfort  
Time TempWeatherWind HumidityBarometerVisibility
12:00 AM
Oct 31
79 °FPassing clouds.No wind89%29.83 "HgN/A
11:00 PM
Oct 30
79 °FPassing clouds.No wind89%29.83 "HgN/A
10:00 PM79 °FPassing clouds.No wind89%29.83 "HgN/A
9:00 PM81 °FPassing clouds.No wind84%29.83 "HgN/A
8:00 PM81 °FPassing clouds.No wind84%29.80 "HgN/A
7:00 PM81 °FPassing clouds.No wind84%29.77 "HgN/A
6:00 PM82 °FPassing clouds.No wind79%29.77 "HgN/A
5:00 PM86 °FPassing clouds.7 mph66%29.77 "HgN/A
4:00 PM88 °FPassing clouds.8 mph62%29.77 "HgN/A
3:00 PM90 °FPassing clouds.12 mph59%29.77 "HgN/A
2:00 PM90 °FPassing clouds.12 mph59%29.77 "HgN/A
1:00 PM93 °FScattered clouds.7 mph56%29.80 "HgN/A
12:00 PM91 °FScattered clouds.9 mph59%29.83 "HgN/A
11:00 AM90 °FScattered clouds.9 mph63%29.86 "HgN/A
10:00 AM90 °FScattered clouds.9 mph59%29.86 "HgN/A
9:00 AM86 °FPassing clouds.8 mph70%29.86 "HgN/A
8:00 AM84 °FPassing clouds.6 mph74%29.86 "HgN/A
7:00 AM79 °FPassing clouds.No wind89%29.83 "HgN/A
6:00 AM77 °FPassing clouds.No wind94%29.80 "HgN/A
5:00 AM77 °FPassing clouds.No wind94%29.77 "HgN/A
4:00 AM77 °FScattered showers. Passing clouds.No wind89%29.77 "HgN/A
3:00 AM77 °FPassing clouds.No wind89%29.77 "HgN/A
2:00 AM79 °FPassing clouds.No wind84%29.77 "HgN/A
1:00 AM79 °FPassing clouds.No wind89%29.80 "HgN/A
Weather by CustomWeather, © 2014

See weather overviewHow to use our weather pages